Home > Weather > Amadora > Past weeks

Flag for Portugal Past Weather in Amadora, Portugal — Yesterday and Last 2 Weeks

Now
72 °F

Passing clouds.


Feels Like: 76 °F
Forecast: 61 / 76 °F
Wind: 15 mph from Northwest

Location: Lisbon Portela Airport

Current Time: Jun 29, 2016 at 7:09:08 PM

Latest Report: Jun 29, 2016 at 6:30 PM


Visibility: N/A

Pressure: 30.01 "Hg

Humidity: 57%

Dew Point: 55 °F

Location of AmadoraLocation

Past Weather in Amadora — Graph

°F

Amadora Temperature Yesterday

Maximum temperature yesterday: 84 °F (at 2:00 PM)
Minimum temperature yesterday: 64 °F (at 10:30 PM)
Average temperature yesterday: 73 °F

High & Low Weather Summary for the Past Weeks

 TemperatureHumidityPressure
High91 °F (Jun 27, 2:30 PM)94% (Jun 22, 7:00 AM)30.30 "Hg (Jun 22, 7:00 AM)
Low55 °F (Jun 17, 4:30 AM)21% (Jun 22, 4:00 PM)29.86 "Hg (Jun 15, 4:30 AM)
Average69 °F65%30.06 "Hg
* Reported Jun 14 6:00 PM — Jun 29 6:00 PM, Amadora, Weather by CustomWeather, © 2016

Note: Actual official high and low records may vary slightly from our data, if they occured in-between our weather recording intervals... More about our weather records

Advertising

Amadora Weather History for the Previous 24 Hours

Scroll right to see more
 ConditionsComfort  
Time TempWeatherWind HumidityBarometerVisibility
6:00 PM
Wed, Jun 29
73 °FPassing clouds.15 mph50%30.01 "HgN/A
5:30 PM75 °FPassing clouds.16 mph47%30.01 "HgN/A
5:00 PM75 °FPassing clouds.18 mph44%30.01 "HgN/A
4:30 PM73 °FPassing clouds.22 mph53%30.01 "HgN/A
4:00 PM75 °FPassing clouds.14 mph50%30.01 "HgN/A
3:30 PM75 °FPassing clouds.17 mph50%30.01 "HgN/A
3:00 PM75 °FPassing clouds.20 mph50%30.04 "HgN/A
2:30 PM77 °FPassing clouds.18 mph47%30.04 "HgN/A
2:00 PM75 °FPassing clouds.17 mph50%30.04 "HgN/A
1:30 PM75 °FPassing clouds.18 mph50%30.04 "HgN/A
1:00 PM75 °FPassing clouds.13 mph54%30.04 "HgN/A
12:30 PM75 °FPassing clouds.14 mph54%30.04 "HgN/A
12:00 PM73 °FPassing clouds.17 mph57%30.04 "HgN/A
11:30 AM72 °FPassing clouds.15 mph61%30.04 "HgN/A
11:00 AM68 °FPassing clouds.14 mph69%30.04 "HgN/A
10:30 AM68 °FPassing clouds.13 mph69%30.04 "HgN/A
10:00 AM66 °FPassing clouds.15 mph73%30.01 "HgN/A
9:30 AM66 °FPassing clouds.12 mph73%30.01 "HgN/A
9:00 AM64 °FPassing clouds.14 mph78%30.01 "HgN/A
8:30 AM64 °FPassing clouds.14 mph78%30.01 "HgN/A
8:00 AM63 °FPassing clouds.14 mph83%30.01 "HgN/A
7:30 AM63 °FPassing clouds.15 mph83%29.98 "HgN/A
7:00 AM63 °FPassing clouds.9 mph83%29.98 "HgN/A
6:30 AM61 °FPassing clouds.9 mph88%29.98 "HgN/A
6:00 AM61 °FPassing clouds.8 mph88%29.98 "HgN/A
5:30 AM61 °FPassing clouds.9 mph88%29.98 "HgN/A
5:00 AM61 °FPassing clouds.8 mph88%29.98 "HgN/A
4:30 AM61 °FPassing clouds.15 mph88%29.98 "HgN/A
4:00 AM63 °FPassing clouds.17 mph83%29.98 "HgN/A
3:30 AM63 °FPassing clouds.18 mph83%29.98 "HgN/A
3:00 AM63 °FPassing clouds.16 mph83%30.01 "HgN/A
2:30 AM63 °FPassing clouds.13 mph83%30.01 "HgN/A
2:00 AM63 °FPassing clouds.13 mph83%30.01 "HgN/A
1:30 AM63 °FPassing clouds.9 mph83%30.01 "HgN/A
1:00 AM63 °FPassing clouds.7 mph83%30.01 "HgN/A
12:30 AM63 °FPassing clouds.6 mph83%30.01 "HgN/A
12:00 AM63 °FPassing clouds.7 mph83%30.01 "HgN/A
11:30 PM
Tue, Jun 28
64 °FPassing clouds.17 mph78%30.01 "HgN/A
11:00 PM64 °FPassing clouds.20 mph78%30.01 "HgN/A
10:30 PM64 °FPassing clouds.24 mph78%30.01 "HgN/A
10:00 PM66 °FPassing clouds.21 mph73%30.01 "HgN/A
9:30 PM66 °FPassing clouds.16 mph73%29.98 "HgN/A
9:00 PM68 °FPassing clouds.20 mph69%29.98 "HgN/A
8:30 PM70 °FPassing clouds.18 mph64%29.95 "HgN/A
8:00 PM72 °FPassing clouds.17 mph57%29.95 "HgN/A
7:30 PM73 °FPassing clouds.15 mph53%29.95 "HgN/A
7:00 PM73 °FPassing clouds.20 mph53%29.98 "HgN/A
Weather by CustomWeather, © 2016

See weather overviewHow to use our weather pages